[Iaude] MPEC F149: 2019 FU1 [a=2.15,e=0.71,i=2.4,H=27.3]

mpec at mpcdb1.cfa.harvard.edu mpec at mpcdb1.cfa.harvard.edu
Sun Mar 31 19:01:17 EDT 2019


M.P.E.C. 2019-F149                               Issued 2019 Mar. 31, 22:58 UT
 
     The Minor Planet Electronic Circulars contain information on unusual
         minor planets and routine data on comets.  They are published
    on behalf of Division F of the International Astronomical Union by the
          Minor Planet Center, Smithsonian Astrophysical Observatory,
                          Cambridge, MA 02138, U.S.A.

             Prepared using the Tamkin Foundation Computer Network

                              MPC at CFA.HARVARD.EDU
            URL https://www.minorplanetcenter.net/    ISSN 1523-6714


                                   2019 FU1
 
Observations:
     K19F01U* C2019 03 29.31698 12 54 47.06 -02 48 06.9          19.8 GVEF149G96
     K19F01U  C2019 03 29.32213 12 54 43.51 -02 48 28.9          19.6 GVEF149G96
     K19F01U  C2019 03 29.32726 12 54 39.79 -02 48 50.4          20.4 GVEF149G96
     K19F01U  C2019 03 29.33238 12 54 36.16 -02 49 12.0          20.1 GVEF149G96
     K19F01U  C2019 03 29.36760212 54 10.67 -02 51 43.0          20.0 GVEF149H01
     K19F01U IC2019 03 29.37486 12 54 04.83 -02 52 00.2                oEF149711
     K19F01U  C2019 03 29.37587812 54 04.98 -02 52 16.8          20.1 GVEF149H01
     K19F01U KC2019 03 29.37749 12 54 02.97 -02 52 11.3                oEF149711
     K19F01U KC2019 03 29.38009 12 54 01.23 -02 52 21.3                oEF149711
     K19F01U  C2019 03 29.38178512 54 00.98 -02 52 40.6          20.0 GVEF149H01
     K19F01U  C2019 03 29.38841012 53 56.50 -02 53 07.3          20.3 GVEF149H01
     K19F01U  C2019 03 29.43135 12 53 28.70 -02 55 52.0          20.8 GVEF149I52
     K19F01U  C2019 03 29.43177 12 53 28.43 -02 55 53.6          20.1 GVEF149I52
     K19F01U  C2019 03 29.43219 12 53 28.15 -02 55 55.8          21.6 GVEF149I52
     K19F01U  C2019 03 29.43260 12 53 27.89 -02 55 57.5          20.2 GVEF149I52
     K19F01U KC2019 03 29.91512012 49 37.08 -03 23 57.0          20.7 GVEF149L01
     K19F01U KC2019 03 29.91662912 49 36.34 -03 24 01.5          20.7 GVEF149L01
     K19F01U KC2019 03 29.91857412 49 35.36 -03 24 06.8          20.6 GVEF149L01
     K19F01U KC2019 03 29.92203112 49 33.62 -03 24 17.5          20.5 GVEF149L01
     K19F01U KC2019 03 30.01011812 48 50.78 -03 28 28.7          21.3 GVEF149L01
     K19F01U KC2019 03 30.01531012 48 48.31 -03 28 43.1          21.1 GVEF149L01
     K19F01U KC2019 03 30.01611 12 48 48.70 -03 28 55.5          20.4 GVEF149K87
     K19F01U KC2019 03 30.01651 12 48 48.50 -03 28 56.7          20.5 GVEF149K87
     K19F01U KC2019 03 30.01691 12 48 48.33 -03 28 57.8          20.7 GVEF149K87
     K19F01U  C2019 03 30.34963 12 46 41.59 -03 42 24.0          21.0 GVEF149I52
     K19F01U  C2019 03 30.35422 12 46 39.63 -03 42 34.4          20.1 GVEF149I52
     K19F01U  C2019 03 30.36338 12 46 35.90 -03 42 55.7          20.7 GVEF149I52
     K19F01U  C2019 03 31.25653 12 42 27.86 -04 11 13.9          21.3 GVEF149I52
     K19F01U  C2019 03 31.25986 12 42 26.94 -04 11 19.4          21.2 GVEF149I52
     K19F01U  C2019 03 31.26319 12 42 25.97 -04 11 24.5          21.3 GVEF149I52
 
Observer details:
711 McDonald Observatory, Fort Davis.  Observer J. G. Ries.  2.1-m reflector
    + CCD + focal reducer.
G96 Mt. Lemmon Survey.  Observer B. M. Africano.  Measurers B. M. Africano,
    E. J. Christensen, G. A. Farneth, D. C. Fuls, A. R. Gibbs, A. D. Grauer,
    H. Groeller, R. A. Kowalski, S. M. Larson, G. J. Leonard, T. A. Pruyne,
    R. L. Seaman, F. C. Shelly.  1.5-m reflector + 10K CCD.
H01 Magdalena Ridge Observatory, Socorro.  Observers W. H. Ryan, E. V. Ryan.
    Measurer W. H. Ryan.  2.4-m f/8.9 Ritchey-Chretien + CCD.
I52 Steward Observatory, Mt. Lemmon Station.  Observer H. Groeller.
    Measurers B. M. Africano, E. J. Christensen, G. A. Farneth, D. C. Fuls,
    A. R. Gibbs, A. D. Grauer, H. Groeller, R. A. Kowalski, S. M. Larson,
    G. J. Leonard, T. A. Pruyne, R. L. Seaman, F. C. Shelly.  1.0-m reflector
    + CCD.
K87 Dettelbach Vineyard Observatory.  Observer B. Haeusler.  0.30-m
    Schmidt-Cassegrain + CCD.
L01 Visnjan Observatory, Tican.  Observers K. Korlevic, I. Lyon, G. Kervina,
    F. Valentine.  Measurer K. Korlevic.  1.0-m f/2.9 reflector + CCD.
 
Orbital elements:
2019 FU1                                                 Earth MOID = 0.0036 AU
Epoch 2019 Apr. 27.0 TT = JDT 2458600.5                 MPC
M  24.28695              (2000.0)            P               Q
n   0.31363020     Peri.   89.95547     -0.18210042     -0.98325004
a   2.1454783      Node    10.54602     +0.88465709     -0.16723488
e   0.7108120      Incl.    2.40118     +0.42921006     -0.07246971
P   3.14           H   27.3           G   0.15           U   7
Residuals in seconds of arc
190329 G96  0.9-  0.0     190329 H01  0.0   0.0     190330 L01  0.1+  0.3+
190329 G96  1.2+  0.2-    190329 I52  0.2-  0.1+    190330 K87  0.5+  0.4+
190329 G96  0.2+  0.0     190329 I52  0.1-  0.1+    190330 K87  0.3+  0.4+
190329 G96  0.4+  0.1-    190329 I52  0.3-  0.5-    190330 K87  0.6+  0.4+
190329 H01  0.1-  0.0     190329 I52  0.2-  0.6-    190330 I52  0.0   0.1-
190329 711  0.7+  0.3+    190329 L01  0.1-  0.2-    190330 I52  0.9-  0.1+
190329 H01  0.4-  0.1-    190329 L01  0.0   0.3-    190330 I52  0.1-  0.0
190329 711  0.3-  0.1-    190329 L01  0.2-  0.2+    190331 I52  0.1-  0.1-
190329 711  0.2+  0.4+    190329 L01  0.6-  0.3-    190331 I52  0.4+  0.3-
190329 H01  0.1-  0.0     190330 L01  0.2+  0.3+    190331 I52  0.1+  0.2-

Ephemeris:
2019 FU1                 a,e,i = 2.15, 0.71, 2                   q = 0.6204
Date    TT    R. A. (2000) Decl.     Delta      r     Elong.  Phase     V
2019 03 01    00 14 26.7 +05 27 32   0.3130  0.7221    25.9   143.2    31.4
...
2019 03 16    00 14 46.0 +07 07 36   0.1206  0.8771    12.4   165.9
...
2019 03 24    23 43 58.3 +10 32 57   0.02755 0.9698    11.5   168.2    34.7
...
2019 03 30    12 48 57.3 -03 25 23   0.04236 1.0407   175.8     4.0    20.9
2019 03 31    12 43 28.1 -04 02 35   0.05385 1.0526   178.1     1.8    21.3
2019 04 01    12 39 54.0 -04 26 35   0.06540 1.0645   179.8     0.2    21.6
...
2019 04 07    12 31 26.8 -05 23 28   0.1358  1.1356   172.5     6.6    23.7
...
2019 04 15    12 29 06.6 -05 47 01   0.2335  1.2295   164.3    12.8    25.3
...
2019 04 30    12 31 43.8 -06 18 03   0.4333  1.4007   150.5    20.7    27.2

A. U. Tomatic                (C) Copyright 2019 MPC           M.P.E.C. 2019-F149



More information about the Iaude mailing list